Tracking 25648 objects as of 18-May-2022
HD Live streaming from Space Station
objects crossing your sky now

JILIN-01 GAOFEN 3D 33

Track JILIN-01 GAOFEN 3D 33 now!
10-day predictions


NORAD ID: 52450
Int'l Code: 2022-048H
Perigee: 534.5 km
Apogee: 552.7 km
Inclination: 97.7 °
Period: 95.4 minutes
Semi major axis: 6914 km
RCS: Unknown
Launch date: May 5, 2022
Source: People's Republic of China (PRC)
Launch site: Taiyaun Space Center, China (TSC)
aabbcc
Your satellite tracking list
Your tracking list is empty




NASA's NSSDC Master Catalog

Two Line Element Set (TLE):
1 52450U 22048H   22137.76537100  .00004576  00000-0  28585-3 0  9999
2 52450  97.6820 202.3785 0013212 231.3249 236.5500 15.09912997  1925
Source of the keplerian elements: AFSPC